When you browse on this site, cookies collect data to enhance your experience and personalize the content and advertising you see.
Visit our Privacy Policy to learn more. By continuing to use the site, you agree to this use of cookies and data.

Hourly Weather Nagano

Today, 7 July, Tuesday

Time Temperature Precipitation Wind Pressure Humidity
00:00 +20°C° 0.4 mm 2 mps 691 mmHg 94%
01:00 +21°C° 0.3 mm 2 mps 690 mmHg 94%
02:00 +21°C° 0.3 mm 2 mps 690 mmHg 94%
03:00 +22°C° 0 mm 1 mps 690 mmHg 95%
04:00 +22°C° 0.4 mm 1 mps 690 mmHg 95%
05:00 +22°C° 0.4 mm 1 mps 690 mmHg 94%
06:00 +21°C° 0.4 mm 2 mps 691 mmHg 94%
07:00 +21°C° 0.7 mm 2 mps 691 mmHg 94%
08:00 +21°C° 0.7 mm 2 mps 691 mmHg 94%
09:00 +23°C° 0 mm 1 mps 691 mmHg 95%
10:00 +23°C° 0.6 mm 2 mps 691 mmHg 93%
11:00 +24°C° 0.6 mm 2 mps 691 mmHg 90%
12:00 +24°C° 0.6 mm 2 mps 691 mmHg 87%
13:00 +25°C° 0.1 mm 2 mps 691 mmHg 83%
14:00 +25°C° 0.1 mm 3 mps 690 mmHg 79%
15:00 +25°C° 0.1 mm 3 mps 690 mmHg 75%
16:00 +25°C° 0.1 mm 3 mps 690 mmHg 77%
17:00 +24°C° 0.1 mm 3 mps 690 mmHg 79%
18:00 +24°C° 0.1 mm 2 mps 690 mmHg 81%
19:00 +23°C° 0.2 mm 2 mps 691 mmHg 84%
20:00 +21°C° 0.2 mm 2 mps 691 mmHg 87%
21:00 +22°C° 0.2 mm 1 mps 691 mmHg 90%
22:00 +21°C° 0.3 mm 2 mps 691 mmHg 90%
23:00 +20°C° 0.3 mm 2 mps 691 mmHg 91%

Tomorrow, 8 July, Wednesday

Time Temperature Precipitation Wind Pressure Humidity
00:00 +20°C° 0.3 mm 2 mps 690 mmHg 91%
01:00 +21°C° 0.2 mm 1 mps 690 mmHg 92%
02:00 +21°C° 0.2 mm 1 mps 690 mmHg 92%
03:00 +21°C° 0.2 mm 1 mps 689 mmHg 93%
04:00 +21°C° 2.1 mm 1 mps 689 mmHg 94%
05:00 +19°C° 2.1 mm 0 mps 689 mmHg 95%
06:00 +19°C° 2.1 mm 0 mps 689 mmHg 97%
07:00 +19°C° 5.6 mm 0 mps 689 mmHg 97%
08:00 +19°C° 5.6 mm 0 mps 689 mmHg 97%
09:00 +21°C° 5.6 mm 1 mps 689 mmHg 97%
10:00 +22°C° 2.2 mm 1 mps 689 mmHg 95%
11:00 +20°C° 2.2 mm 0 mps 689 mmHg 92%
12:00 +21°C° 2.2 mm 0 mps 689 mmHg 89%
13:00 +23°C° 2.4 mm 1 mps 689 mmHg 90%
14:00 +23°C° 2.4 mm 1 mps 689 mmHg 90%
15:00 +23°C° 2.4 mm 1 mps 689 mmHg 91%
16:00 +22°C° 0.3 mm 1 mps 689 mmHg 91%
17:00 +22°C° 0.3 mm 1 mps 689 mmHg 92%
18:00 +22°C° 0.3 mm 1 mps 689 mmHg 93%
19:00 +22°C° 0.1 mm 1 mps 689 mmHg 93%
20:00 +21°C° 0.1 mm 1 mps 690 mmHg 93%
21:00 +21°C° 0.1 mm 1 mps 690 mmHg 94%
22:00 +21°C° 0.2 mm 1 mps 690 mmHg 94%
23:00 +21°C° 0.2 mm 1 mps 690 mmHg 94%

Day after tomorrow, 9 July, Thursday

Time Temperature Precipitation Wind Pressure Humidity
00:00 +21°C° 0.2 mm 1 mps 689 mmHg 94%
01:00 +20°C° 0.2 mm 1 mps 689 mmHg 94%
02:00 +20°C° 0.2 mm 1 mps 689 mmHg 94%
03:00 +20°C° 0.2 mm 1 mps 689 mmHg 94%
04:00 +20°C° 0.3 mm 1 mps 690 mmHg 94%
05:00 +21°C° 0.3 mm 1 mps 690 mmHg 94%
06:00 +21°C° 0.3 mm 1 mps 690 mmHg 94%
07:00 +21°C° 0.6 mm 1 mps 690 mmHg 94%
08:00 +21°C° 0.6 mm 1 mps 690 mmHg 94%
09:00 +21°C° 0.6 mm 1 mps 691 mmHg 94%
10:00 +22°C° 0.8 mm 1 mps 691 mmHg 93%
11:00 +22°C° 0.8 mm 1 mps 691 mmHg 92%
12:00 +22°C° 0.8 mm 1 mps 691 mmHg 92%
13:00 +22°C° 0.3 mm 1 mps 691 mmHg 88%
14:00 +23°C° 0.3 mm 1 mps 691 mmHg 84%
15:00 +23°C° 0.3 mm 1 mps 691 mmHg 80%
16:00 +23°C° 0.1 mm 1 mps 692 mmHg 82%
17:00 +23°C° 0.1 mm 1 mps 692 mmHg 84%
18:00 +22°C° 0.1 mm 1 mps 692 mmHg 86%
19:00 +22°C° 0.1 mm 1 mps 692 mmHg 87%
20:00 +21°C° 0.1 mm 1 mps 692 mmHg 89%
21:00 +21°C° 0.1 mm 1 mps 692 mmHg 91%
22:00 +20°C° 0.8 mm 1 mps 692 mmHg 93%
23:00 +20°C° 0.8 mm 1 mps 692 mmHg 94%

10 July, Friday

Time Temperature Precipitation Wind Pressure Humidity
00:00 +20°C° 0.8 mm 1 mps 692 mmHg 95%
01:00 +20°C° 1.6 mm 1 mps 692 mmHg 96%
02:00 +20°C° 1.6 mm 1 mps 692 mmHg 96%
03:00 +20°C° 1.6 mm 1 mps 692 mmHg 96%
04:00 +18°C° 4.1 mm 0 mps 692 mmHg 97%
05:00 +18°C° 4.1 mm 0 mps 693 mmHg 97%
06:00 +18°C° 4.1 mm 0 mps 693 mmHg 97%
07:00 +18°C° 3.8 mm 0 mps 693 mmHg 97%
08:00 +18°C° 3.8 mm 0 mps 693 mmHg 97%
09:00 +19°C° 3.8 mm 0 mps 694 mmHg 97%
10:00 +19°C° 1.7 mm 0 mps 694 mmHg 96%
11:00 +21°C° 1.7 mm 1 mps 694 mmHg 96%
12:00 +21°C° 1.7 mm 1 mps 694 mmHg 95%
13:00 +23°C° 0.2 mm 1 mps 694 mmHg 88%
14:00 +24°C° 0.2 mm 2 mps 694 mmHg 81%
15:00 +25°C° 0.2 mm 2 mps 694 mmHg 74%
16:00 +25°C° 0.1 mm 2 mps 694 mmHg 78%
17:00 +24°C° 0.1 mm 1 mps 694 mmHg 82%
18:00 +23°C° 0.1 mm 1 mps 694 mmHg 85%
19:00 +22°C° 0.1 mm 1 mps 694 mmHg 86%
20:00 +22°C° 0.1 mm 1 mps 694 mmHg 87%
21:00 +21°C° 0.1 mm 1 mps 695 mmHg 87%
22:00 +21°C° 0 mm 1 mps 694 mmHg 88%
23:00 +21°C° 0 mm 1 mps 694 mmHg 88%

11 July, Saturday

Time Temperature Precipitation Wind Pressure Humidity
00:00 +21°C° 0 mm 1 mps 694 mmHg 88%
01:00 +21°C° 0 mm 1 mps 694 mmHg 88%
02:00 +19°C° 0 mm 0 mps 694 mmHg 88%
03:00 +18°C° 0 mm 0 mps 694 mmHg 87%
04:00 +19°C° 0 mm 0 mps 694 mmHg 87%
05:00 +19°C° 0 mm 0 mps 694 mmHg 86%
06:00 +21°C° 0 mm 1 mps 694 mmHg 85%
07:00 +21°C° 0.1 mm 1 mps 694 mmHg 85%
08:00 +22°C° 0.1 mm 1 mps 694 mmHg 85%
09:00 +22°C° 0.1 mm 1 mps 694 mmHg 84%
10:00 +23°C° 0.1 mm 1 mps 694 mmHg 83%
11:00 +23°C° 0.1 mm 1 mps 694 mmHg 83%
12:00 +24°C° 0.1 mm 1 mps 694 mmHg 82%
13:00 +24°C° 0.2 mm 1 mps 693 mmHg 83%
14:00 +23°C° 0.2 mm 1 mps 693 mmHg 85%
15:00 +23°C° 0.2 mm 1 mps 693 mmHg 86%
16:00 +23°C° 0.4 mm 1 mps 692 mmHg 88%
17:00 +22°C° 0.4 mm 1 mps 692 mmHg 90%
18:00 +22°C° 0.4 mm 1 mps 692 mmHg 92%
19:00 +21°C° 0.3 mm 1 mps 692 mmHg 92%
20:00 +21°C° 0.3 mm 1 mps 692 mmHg 93%
21:00 +21°C° 0.3 mm 1 mps 692 mmHg 93%
22:00 +21°C° 0.4 mm 1 mps 692 mmHg 94%
23:00 +21°C° 0.4 mm 1 mps 692 mmHg 94%

12 July, Sunday

Time Temperature Precipitation Wind Pressure Humidity
00:00 +21°C° 0.4 mm 1 mps 692 mmHg 95%
01:00 +21°C° 0.5 mm 1 mps 691 mmHg 95%
02:00 +21°C° 0.5 mm 1 mps 691 mmHg 95%
03:00 +21°C° 0.5 mm 1 mps 691 mmHg 95%
04:00 +21°C° 2.3 mm 1 mps 691 mmHg 96%
05:00 +18°C° 2.3 mm 0 mps 690 mmHg 96%
06:00 +18°C° 2.3 mm 0 mps 690 mmHg 97%
07:00 +19°C° 3.8 mm 0 mps 690 mmHg 97%
08:00 +19°C° 3.8 mm 0 mps 690 mmHg 97%
09:00 +19°C° 3.8 mm 0 mps 690 mmHg 97%
10:00 +21°C° 0.7 mm 0 mps 690 mmHg 91%
11:00 +23°C° 0.7 mm 0 mps 690 mmHg 84%
12:00 +24°C° 0.7 mm 0 mps 691 mmHg 77%
13:00 +27°C° 0.4 mm 1 mps 690 mmHg 74%
14:00 +28°C° 0.4 mm 1 mps 690 mmHg 71%
15:00 +28°C° 0.4 mm 1 mps 690 mmHg 68%
16:00 +27°C° 0.5 mm 1 mps 690 mmHg 74%
17:00 +26°C° 0.5 mm 1 mps 690 mmHg 81%
18:00 +25°C° 0.5 mm 1 mps 690 mmHg 87%
19:00 +23°C° 0.3 mm 1 mps 690 mmHg 89%
20:00 +22°C° 0.3 mm 1 mps 690 mmHg 90%
21:00 +19°C° 0.3 mm 0 mps 691 mmHg 92%
22:00 +19°C° 0 mm 0 mps 690 mmHg 92%
23:00 +18°C° 0 mm 0 mps 690 mmHg 92%
Show more